CZ-3C DEB, 39350

Orbit data source: Space-Track

CZ-3C DEB, 39350 is space debris in HEO originally from a launch on Sun, 31 Oct 2010 UTC launched from the Xichang Space Center, China (XSC). Debris objects in space refer to the collection of defunct objects orbiting the Earth. Examples of debris include non-operational satellites, rocket bodies, and fragments generated from explosions, collisions, or faulty payload assembly.

Loading next visibility...
Identifier
39350, 2010-057Q
Orbit
HEO
Country
Flag of CNCN / PRC
Related business
Manufacturer
CALT
Mission
Spacecraft
Bus & Motor
Unknown
Mass
Unknown
Launch date (UTC)
2010-10-31 (15 years ago)
Launch vehicle
Unknown
Launch site
Xichang Space Center, China (XSC)
Object type
Payload
Rocket body
Debris
Shape & HBR
Unknown shape, 0.3 m
Radar Cross Section
Medium (>0.1 m² and <1 m²)

Expand to show TLE details & history
Last TLE update: 2 days ago

TLE from 2 days ago
0 CZ-3C DEB
1 39350U 10057Q   26071.49487405 -.00000049  00000-0 -29259-3 0  9995
2 39350  20.2306  77.5583 7205815 206.3646 265.3696  2.22923555 97812
Epoch: 2026-03-12T11:52Z
TLE epoch observation values (Epoch: 2026-03-12T11:52:37.117Z)
Latitude
15.11628°
Longitude
136.3737°
Altitude
29,215.439 km
Speed
2.509 km/s
True Right ascension
08h 18m 41s
True Declination
15° 05' 56"
Sunlit
Object was in daylight at epoch
Visualization orbit readout
Latitude
Unknown
Longitude
Unknown
Altitude
Unknown
Speed
Unknown
Apparent Right ascension
Unknown
Apparent Declination
Unknown
Sunlit
N/A
Visualization observer readout
Local Sidereal Time
10:15:05
Azimuth
Unknown
Elevation
Unknown
Doppler factor
Unknown
Orbital elements
Apogee altitude
36,219.31 km
Perigee altitude
539.591 km
Semi-major axis
24,757.587 km
Eccentricity
0.72058
Inclination
20.2306°
RAAN
77.5583°
Arg. of periapsis
206.3646°
True anomaly
202.51852°
Mean anomaly
265.3696°
Eccentric anomaly
232.57995°
Mean motion
0.55716 °/min
Orbital period
646.13 mins
BSTAR
-0.00029259
Loading maneuver chart data...
Computing Atmospheric mass density...
Loading historical data...
Loading historical data...
Loading historical data...
Loading historical data...
Loading historical data...
Loading historical data...
Loading historical data...

Documentation

Showing up to 5 results
|